W0NKY-13 Weather Reports


time (UTC)temp
C
wind
direction
speed
KPH
gust
KPH
rain 1hr
cm
rain 24hr
cm
rain mn
cm
humidity
%
barometer
mb
20260902213018 34 348 3.2 8.0 0.00 0.00 0.00 54 1018.6
20260902212017 34 352 1.6 3.2 0.00 0.00 0.00 55 1018.6
20260902211017 35 341 1.6 4.8 0.00 0.00 0.00 54 1018.7
20260902210018 35 351 1.6 3.2 0.00 0.00 0.00 54 1018.7
20260902205016 34 351 1.6 6.4 0.00 0.00 0.00 53 1018.8
20260902204017 34 352 1.6 6.4 0.00 0.00 0.00 54 1018.9
20260902203017 35 349 0.0 4.8 0.00 0.00 0.00 55 1018.9
20260902202020 36 268 0.0 3.2 0.00 0.00 0.00 52 1019.0
20260902201018 35 295 0.0 3.2 0.00 0.00 0.00 54 1019.0
20260902200018 35 344 1.6 6.4 0.00 0.00 0.00 52 1019.1
20260902195018 35 355 1.6 6.4 0.00 0.00 0.00 53 1019.2
20260902194017 35 9 1.6 4.8 0.00 0.00 0.00 52 1019.3
20260902193018 36 346 3.2 8.0 0.00 0.00 0.00 51 1019.4
20260902192058 36 206 1.6 4.8 0.00 0.00 0.00 53 1019.6
20260902191019 36 331 1.6 4.8 0.00 0.00 0.00 50 1019.7
20260902190018 36 350 1.6 9.7 0.00 0.00 0.00 50 1019.7
20260902185038 36 6 1.6 4.8 0.00 0.00 0.00 51 1019.8
20260902184018 35 337 1.6 6.4 0.00 0.00 0.00 52 1019.9
20260902183018 36 172 1.6 4.8 0.00 0.00 0.00 53 1019.9
20260902182018 36 321 1.6 9.7 0.00 0.00 0.00 52 1020.0
20260902181039 36 350 1.6 9.7 0.00 0.00 0.00 49 1020.0
20260902180018 37 341 1.6 6.4 0.00 0.00 0.00 49 1020.1
20260902175038 36 313 1.6 3.2 0.00 0.00 0.00 51 1020.2
20260902174018 36 346 1.6 8.0 0.00 0.00 0.00 52 1020.3
20260902173019 36 343 1.6 8.0 0.00 0.00 0.00 53 1020.3
20260902172039 36 342 3.2 11.3 0.00 0.00 0.00 50 1020.5
20260902171019 37 349 1.6 8.0 0.00 0.00 0.00 50 1020.5
20260902170019 37 341 1.6 8.0 0.00 0.00 0.00 52 1020.5
20260902165016 37 337 1.6 4.8 0.00 0.00 0.00 50 1020.6
20260902164016 37 343 1.6 4.8 0.00 0.00 0.00 51 1020.6
20260902163016 36 213 1.6 3.2 0.00 0.00 0.00 52 1020.7
20260902162059 36 343 3.2 11.3 0.00 0.00 0.00 51 1020.7
20260902161040 36 342 1.6 6.4 0.00 0.00 0.00 54 1020.8
20260902160020 37 357 1.6 6.4 0.00 0.00 0.00 52 1020.9
20260902155039 38 336 1.6 4.8 0.00 0.00 0.00 50 1021.0
20260902154037 37 1 1.6 4.8 0.00 0.00 0.00 51 1021.1
20260902153018 37 322 1.6 4.8 0.00 0.00 0.00 52 1021.1
20260902152019 37 10 1.6 3.2 0.00 0.00 0.00 51 1021.1
20260902151102 36 330 0.0 3.2 0.00 0.00 0.00 53 1021.2
20260902150018 35 350 1.6 4.8 0.00 0.00 0.00 57 1021.2
20260902145018 35 345 1.6 8.0 0.00 0.00 0.00 57 1021.0
20260902144058 34 4 1.6 6.4 0.00 0.00 0.00 57 1021.1
20260902143038 34 353 1.6 3.2 0.00 0.00 0.00 59 1021.1
20260902142018 34 7 1.6 4.8 0.00 0.00 0.00 60 1021.3
20260902141019 32 346 1.6 4.8 0.00 0.00 0.00 62 1021.2
20260902140019 31 64 0.0 3.2 0.00 0.00 0.00 69 1021.2
20260902135019 30 113 1.6 3.2 0.00 0.00 0.00 69 1021.2
20260902134020 29 60 1.6 3.2 0.00 0.00 0.00 71 1021.2
20260902133019 28 27 1.6 8.0 0.00 0.00 0.00 74 1021.3
20260902132017 27 18 1.6 3.2 0.00 0.00 0.00 79 1021.2
20260902131017 25 10 1.6 3.2 0.00 0.00 0.00 86 1021.2
20260902130017 23 7 1.6 4.8 0.00 0.00 0.00 96 1021.2
20260902125017 23 13 1.6 3.2 0.00 0.00 0.00 98 1021.2
20260902124017 22 66 1.6 3.2 0.00 0.00 0.00 98 1021.1
20260902123018 22 60 1.6 1.6 0.00 0.00 0.00 98 1021.0
20260902122039 21 56 0.0 1.6 0.00 0.00 0.00 98 1020.9
20260902121022 21 41 1.6 1.6 0.00 0.00 0.00 98 1020.8
20260902120018 20 28 0.0 1.6 0.00 0.00 0.00 98 1020.7
20260902115021 20 55 0.0 1.6 0.00 0.00 0.00 98 1020.6
20260902114018 20 52 0.0 1.6 0.00 0.00 0.00 98 1020.5
20260902113019 20 55 0.0 1.6 0.00 0.00 0.00 98 1020.5
20260902112018 20 66 0.0 1.6 0.00 0.00 0.00 98 1020.3
20260902111018 20 69 0.0 1.6 0.00 0.00 0.00 98 1020.3
20260902110018 20 78 0.0 1.6 0.00 0.00 0.00 98 1020.3
20260902105039 19 54 0.0 1.6 0.00 0.00 0.00 98 1020.4
20260902104019 19 74 0.0 1.6 0.00 0.00 0.00 98 1020.3
20260902103039 20 87 0.0 1.6 0.00 0.00 0.00 98 1020.3
20260902102019 20 72 0.0 1.6 0.00 0.00 0.00 98 1020.3
20260902101039 20 65 0.0 1.6 0.00 0.00 0.00 98 1020.2
20260902100016 20 69 0.0 1.6 0.00 0.00 0.00 98 1020.1
20260902095020 20 65 0.0 1.6 0.00 0.00 0.00 98 1020.1
20260902094019 20 42 0.0 1.6 0.00 0.00 0.00 98 1020.1
20260902093021 20 67 0.0 1.6 0.00 0.00 0.00 98 1020.1
20260902092020 20 78 0.0 1.6 0.00 0.00 0.00 98 1020.0
20260902091017 20 89 0.0 1.6 0.00 0.00 0.00 98 1020.0
20260902090017 20 75 0.0 1.6 0.00 0.00 0.00 97 1019.9
20260902085017 20 57 0.0 1.6 0.00 0.00 0.00 98 1019.8
20260902084017 20 57 0.0 1.6 0.00 0.00 0.00 98 1019.7
20260902083039 20 76 0.0 1.6 0.00 0.00 0.00 98 1019.6
20260902082038 20 93 0.0 1.6 0.00 0.00 0.00 97 1019.6
20260902081021 20 60 0.0 1.6 0.00 0.00 0.00 97 1019.5
20260902080018 20 75 0.0 1.6 0.00 0.00 0.00 97 1019.4
20260902075018 20 92 0.0 1.6 0.00 0.00 0.00 97 1019.4
20260902074018 20 72 0.0 1.6 0.00 0.00 0.00 97 1019.4
20260902073018 20 84 0.0 1.6 0.00 0.00 0.00 97 1019.5
20260902072038 20 74 0.0 1.6 0.00 0.00 0.00 97 1019.5
20260902071019 20 94 0.0 1.6 0.00 0.00 0.00 97 1019.4
20260902070038 20 94 0.0 1.6 0.00 0.00 0.00 97 1019.4
20260902065020 20 89 0.0 1.6 0.00 0.00 0.00 97 1019.4
20260902064021 20 97 0.0 3.2 0.00 0.00 0.00 97 1019.4
20260902063041 21 88 0.0 1.6 0.00 0.00 0.00 97 1019.5
20260902062019 21 91 0.0 1.6 0.00 0.00 0.00 97 1019.5
20260902061021 21 92 0.0 1.6 0.00 0.00 0.00 97 1019.5
20260902060016 21 78 0.0 1.6 0.00 0.00 0.00 97 1019.6
20260902055021 21 77 0.0 1.6 0.00 0.00 0.00 97 1019.6
20260902054019 21 34 0.0 1.6 0.00 0.00 0.00 97 1019.6
20260902053021 21 69 0.0 1.6 0.00 0.00 0.00 97 1019.6
20260902052020 21 76 0.0 0.0 0.00 0.00 0.00 97 1019.5
20260902051017 21 108 0.0 1.6 0.00 0.00 0.00 97 1019.6
20260902050018 21 88 0.0 1.6 0.00 0.00 0.00 97 1019.6
20260902045017 21 101 0.0 1.6 0.00 0.00 0.00 96 1019.6
20260902044018 21 91 0.0 1.6 0.00 0.00 0.00 96 1019.5
20260902043018 21 92 0.0 1.6 0.00 0.00 0.00 96 1019.6
20260902042018 21 31 0.0 1.6 0.00 0.00 0.00 96 1019.6
20260902041018 21 101 0.0 1.6 0.00 0.00 0.00 96 1019.6
20260902040046 21 88 0.0 1.6 0.00 0.00 0.00 96 1019.6
20260902035039 21 128 0.0 1.6 0.00 0.00 0.00 96 1019.6
20260902034018 22 102 0.0 1.6 0.00 0.00 0.00 96 1019.6
20260902033021 22 46 0.0 1.6 0.00 0.00 0.00 96 1019.6
20260902032018 22 48 0.0 1.6 0.00 0.00 0.00 96 1019.5
20260902031020 22 19 0.0 1.6 0.00 0.00 0.00 96 1019.5
20260902030019 22 65 0.0 1.6 0.00 0.00 0.00 96 1019.5
20260902025019 22 48 0.0 1.6 0.00 0.00 0.00 96 1019.6
20260902024019 22 68 0.0 1.6 0.00 0.00 0.00 95 1019.6
20260902023019 22 98 0.0 1.6 0.00 0.00 0.00 95 1019.6
20260902022019 22 82 0.0 1.6 0.00 0.00 0.00 94 1019.6
20260902021019 22 82 0.0 1.6 0.00 0.00 0.00 94 1019.6
20260902020038 22 52 0.0 3.2 0.00 0.00 0.00 94 1019.6
20260902015040 23 27 0.0 3.2 0.00 0.00 0.00 93 1019.5
20260902014020 23 30 0.0 3.2 0.00 0.00 0.00 92 1019.4
20260902013018 23 60 0.0 1.6 0.00 0.00 0.00 91 1019.4
20260902012019 23 11 0.0 1.6 0.00 0.00 0.00 92 1019.2
20260902011017 23 33 0.0 1.6 0.00 0.00 0.00 90 1019.2
20260902010017 24 34 0.0 1.6 0.00 0.00 0.00 89 1019.1
20260902005017 25 39 0.0 1.6 0.00 0.00 0.00 88 1019.0
20260902004017 25 21 0.0 1.6 0.00 0.00 0.00 84 1019.1
20260902003018 26 16 0.0 1.6 0.00 0.00 0.00 83 1019.1
20260902002022 26 12 0.0 1.6 0.00 0.00 0.00 82 1019.1
20260902001020 27 17 0.0 0.0 0.00 0.00 0.00 78 1019.1
20260902000018 27 353 0.0 1.6 0.00 0.00 0.00 76 1019.1
20260901235038 28 358 0.0 1.6 0.00 0.00 0.00 75 1019.2
20260901234019 28 9 0.0 1.6 0.00 0.00 0.00 72 1019.2
20260901233019 28 5 0.0 1.6 0.00 0.00 0.00 71 1019.2
20260901232018 29 354 0.0 1.6 0.00 0.00 0.00 71 1019.2
20260901231038 30 10 1.6 4.8 0.00 0.00 0.00 69 1019.2
20260901230020 30 14 0.0 3.2 0.00 0.00 0.00 68 1019.2
20260901225020 31 14 0.0 3.2 0.00 0.00 0.00 67 1019.2
20260901224019 31 1 1.6 4.8 0.00 0.00 0.00 63 1019.2
20260901223021 31 0 1.6 6.4 0.00 0.00 0.00 61 1019.1
20260901222017 32 345 1.6 6.4 0.00 0.00 0.00 59 1019.0
20260901221016 32 28 1.6 3.2 0.00 0.00 0.00 63 1019.0
20260901220020 32 355 1.6 4.8 0.00 0.00 0.00 60 1019.0
20260901215022 33 351 3.2 8.0 0.00 0.00 0.00 59 1019.0
20260901214022 33 355 0.0 4.8 0.00 0.00 0.00 56 1019.0